QPF
0.00 0.00 0.01 0.00 0.00 0.00 0.00 0.00 0.00 0.00 0.00 0.00 0.00 0.00 0.01 0.02 0.02 0.00 0.00 0.00 0.00 0.00 0.00 0.00 0.00 0.00 0.03 0.02 0.03 0.01 0.00 0.00 0.00 0.00 0.00 0.00 0.00 0.00 0.00 0.00 0.00 0.00 0.00
0.00 0.00 0.01 0.00 0.00 0.00 0.00 0.00 0.00 0.00 0.00 0.00 0.00 0.00 0.00 0.01 0.01 0.00 0.00 0.00 0.00 0.00 0.00 0.00 0.00 0.00 0.00 0.00 0.00 0.00 0.00 0.00 0.00 0.00 0.00 0.00 0.00 0.00 0.00 0.00 0.01 0.00 0.00
0.00 0.00 0.00 0.01 0.00 0.00 0.00 0.00 0.00 0.00 0.00 0.00 0.00 0.00 0.00 0.00 0.00 0.00 0.00 0.00 0.00 0.00 0.00 0.00 0.00 0.00 0.00 0.00 0.00 0.00 0.00 0.00 0.00 0.00 0.00 0.00 0.00 0.00 0.00 0.00 0.01 0.00 0.00
0.00 0.00 0.00 0.01 0.00 0.00 0.00 0.00 0.00 0.00 0.00 0.00 0.00 0.00 0.00 0.00 0.01 0.00 0.00 0.00 0.00 0.00 0.00 0.00 0.00 0.00 0.00 0.00 0.00 0.00 0.00 0.00 0.00 0.00 0.00 0.00 0.00 0.00 0.00 0.00 0.00 0.00 0.00
0.00 0.00 0.00 0.01 0.00 0.00 0.00 0.00 0.00 0.00 0.00 0.00 0.00 0.00 0.00 0.00 0.00 0.00 0.00 0.00 0.00 0.00 0.00 0.00 0.00 0.00 0.00 0.00 0.00 0.00 0.00 0.00 0.00 0.00 0.00 0.00 0.00 0.00 0.00 0.00 0.00 0.01 0.00
0.00 0.00 0.00 0.01 0.00 0.00 0.00 0.00 0.00 0.00 0.00 0.00 0.00 0.00 0.00 0.01 0.01 0.01 0.00 0.00 0.00 0.00 0.00 0.00 0.00 0.00 0.00 0.00 0.00 0.00 0.00 0.00 0.00 0.00 0.00 0.00 0.00 0.00 0.00 0.00 0.00 0.00 0.00
0.00 0.00 0.00 0.00 0.00 0.00 0.00 0.00 0.00 0.00 0.00 0.00 0.00 0.00 0.00 0.01 0.01 0.02 0.01 0.00 0.00 0.00 0.00 0.00 0.00 0.00 0.00 0.00 0.00 0.00 0.00 0.00 0.00 0.00 0.00 0.00 0.00 0.00 0.00 0.00 0.00 0.00 0.00
0.00 0.00 0.00 0.00 0.00 0.00 0.00 0.00 0.00 0.00 0.00 0.00 0.00 0.00 0.00 0.00 0.00 0.01 0.01 0.00 0.00 0.00 0.00 0.00 0.00 0.00 0.00 0.00 0.00 0.00 0.00 0.00 0.00 0.00 0.00 0.00 0.00 0.00 0.00 0.00 0.00 0.00 0.00
0.00 0.00 0.00 0.00 0.00 0.00 0.00 0.00 0.00 0.00 0.00 0.00 0.00 0.00 0.00 0.00 0.00 0.00 0.00 0.00 0.00 0.00 0.00 0.00 0.00 0.00 0.00 0.00 0.00 0.00 0.00 0.00 0.00 0.00 0.00 0.00 0.00 0.00 0.00 0.01 0.01 0.01 0.00
0.00 0.00 0.00 0.00 0.00 0.00 0.00 0.00 0.00 0.00 0.00 0.00 0.00 0.00 0.00 0.00 0.00 0.00 0.00 0.00 0.00 0.00 0.00 0.00 0.00 0.01 0.00 0.00 0.00 0.00 0.00 0.00 0.00 0.00 0.00 0.00 0.00 0.00 0.01 0.02 0.02 0.04 0.06
0.00 0.00 0.00 0.00 0.00 0.00 0.00 0.00 0.00 0.00 0.00 0.00 0.00 0.00 0.00 0.00 0.00 0.00 0.00 0.00 0.00 0.00 0.00 0.00 0.00 0.00 0.00 0.00 0.00 0.00 0.00 0.00 0.00 0.00 0.00 0.00 0.00 0.00 0.00 0.00 0.00 0.01 0.02
0.00 0.00 0.00 0.00 0.00 0.00 0.00 0.00 0.00 0.00 0.00 0.00 0.00 0.00 0.00 0.00 0.00 0.00 0.00 0.00 0.00 0.00 0.00 0.00 0.00 0.00 0.00 0.00 0.00 0.00 0.00 0.00 0.00 0.00 0.00 0.00 0.00 0.00 0.00 0.00 0.00 0.00 0.00
0.00 0.00 0.00 0.00 0.00 0.00 0.00 0.00 0.00 0.00 0.00 0.00 0.00 0.00 0.00 0.00 0.00 0.00 0.00 0.00 0.00 0.00 0.00 0.00 0.00 0.00 0.00 0.00 0.00 0.00 0.00 0.00 0.00 0.00 0.00 0.00 0.00 0.00 0.00 0.00 0.00 0.00 0.00
0.00 0.00 0.00 0.00 0.00 0.00 0.00 0.00 0.00 0.00 0.00 0.00 0.00 0.00 0.00 0.00 0.00 0.00 0.00 0.00 0.00 0.00 0.00 0.00 0.00 0.00 0.00 0.00 0.00 0.00 0.00 0.00 0.00 0.00 0.00 0.00 0.00 0.00 0.00 0.00 0.00 0.00 0.00
0.00 0.00 0.00 0.00 0.00 0.00 0.00 0.00 0.00 0.00 0.00 0.00 0.00 0.00 0.00 0.00 0.00 0.00 0.00 0.00 0.00 0.00 0.00 0.00 0.00 0.00 0.00 0.00 0.00 0.00 0.00 0.00 0.00 0.00 0.00 0.00 0.00 0.00 0.00 0.00 0.00 0.00 0.00
0.00 0.00 0.00 0.00 0.00 0.00 0.00 0.00 0.00 0.00 0.00 0.00 0.00 0.00 0.00 0.00 0.00 0.00 0.00 0.00 0.00 0.00 0.00 0.00 0.00 0.00 0.00 0.00 0.00 0.00 0.00 0.00 0.00 0.00 0.00 0.00 0.00 0.00 0.00 0.00 0.00 0.00 0.00
0.00 0.00 0.00 0.00 0.00 0.00 0.00 0.00 0.03 0.00 0.00 0.00 0.00 0.00 0.00 0.00 0.00 0.00 0.00 0.00 0.00 0.00 0.00 0.00 0.00 0.00 0.00 0.00 0.00 0.00 0.00 0.00 0.00 0.00 0.00 0.00 0.00 0.00 0.00 0.00 0.00 0.00 0.00
0.00 0.00 0.00 0.00 0.00 0.00 0.00 0.03 0.06 0.01 0.02 0.00 0.00 0.00 0.00 0.00 0.00 0.00 0.00 0.00 0.00 0.00 0.00 0.00 0.00 0.00 0.00 0.00 0.00 0.00 0.00 0.00 0.00 0.00 0.00 0.00 0.00 0.00 0.00 0.00 0.00 0.00 0.00
0.00 0.00 0.00 0.00 0.00 0.00 0.01 0.02 0.03 0.01 0.01 0.00 0.00 0.00 0.00 0.00 0.00 0.00 0.00 0.00 0.00 0.00 0.00 0.00 0.00 0.00 0.00 0.00 0.00 0.00 0.00 0.00 0.00 0.00 0.00 0.00 0.00 0.00 0.00 0.00 0.00 0.00 0.00
0.00 0.00 0.00 0.00 0.00 0.00 0.01 0.00 0.01 0.01 0.00 0.00 0.00 0.00 0.00 0.00 0.00 0.00 0.00 0.00 0.00 0.00 0.00 0.00 0.00 0.00 0.00 0.00 0.00 0.00 0.00 0.00 0.00 0.00 0.00 0.00 0.00 0.00 0.00 0.00 0.00 0.00 0.00
0.00 0.00 0.00 0.00 0.00 0.01 0.03 0.00 0.00 0.00 0.00 0.00 0.00 0.00 0.00 0.00 0.00 0.00 0.00 0.00 0.00 0.00 0.00 0.00 0.00 0.00 0.00 0.00 0.00 0.00 0.00 0.00 0.00 0.00 0.00 0.00 0.00 0.00 0.00 0.00 0.00 0.00 0.00
0.00 0.00 0.00 0.00 0.00 0.02 0.02 0.01 0.00 0.00 0.00 0.00 0.00 0.00 0.00 0.00 0.00 0.00 0.00 0.00 0.00 0.00 0.00 0.00 0.00 0.00 0.00 0.00 0.00 0.00 0.00 0.00 0.00 0.00 0.00 0.00 0.00 0.00 0.00 0.00 0.00 0.00 0.00
0.00 0.00 0.00 0.00 0.00 0.02 0.02 0.01 0.00 0.00 0.00 0.00 0.00 0.00 0.00 0.00 0.00 0.00 0.00 0.00 0.00 0.00 0.00 0.00 0.00 0.00 0.00 0.00 0.00 0.00 0.00 0.00 0.00 0.00 0.00 0.00 0.00 0.00 0.00 0.00 0.00 0.00 0.00
0.00 0.00 0.00 0.00 0.02 0.01 0.01 0.00 0.00 0.00 0.00 0.00 0.00 0.00 0.00 0.00 0.00 0.00 0.00 0.00 0.00 0.00 0.00 0.00 0.00 0.00 0.00 0.00 0.00 0.00 0.00 0.00 0.00 0.00 0.00 0.00 0.00 0.00 0.00 0.00 0.00 0.00 0.00
0.00 0.00 0.00 0.00 0.01 0.00 0.00 0.00 0.00 0.00 0.00 0.00 0.00 0.00 0.00 0.00 0.00 0.00 0.00 0.00 0.00 0.00 0.00 0.00 0.00 0.00 0.00 0.00 0.00 0.00 0.00 0.00 0.00 0.00 0.00 0.00 0.00 0.00 0.00 0.00 0.00 0.00 0.00
0.00 0.00 0.00 0.00 0.00 0.00 0.00 0.00 0.00 0.00 0.00 0.00 0.00 0.00 0.00 0.00 0.00 0.00 0.00 0.00 0.00 0.00 0.00 0.00 0.00 0.00 0.00 0.00 0.00 0.00 0.00 0.00 0.00 0.00 0.00 0.00 0.00 0.00 0.00 0.00 0.00 0.00 0.00
MSLP
1011.96 1011.92 1012.22 1012.65 1013.10 1013.45 1013.78 1014.01 1014.32 1014.56 1014.69 1014.83 1014.98 1015.14 1015.30 1015.47 1015.64 1015.79 1015.98 1016.08 1016.23 1016.22 1016.19 1016.19 1016.13 1016.16 1016.12 1015.99 1016.13 1016.31 1016.49 1016.65 1016.73 1016.83 1016.95 1016.95 1016.87 1016.68 1016.44 1016.39 1016.53 1016.41 1016.67
1011.37 1011.85 1012.14 1012.52 1013.07 1013.44 1013.75 1014.10 1014.40 1014.67 1014.84 1014.99 1015.00 1015.22 1015.50 1015.67 1015.82 1015.90 1016.12 1016.25 1016.33 1016.40 1016.37 1016.34 1016.25 1016.36 1016.37 1016.41 1016.36 1016.39 1016.45 1016.62 1016.71 1016.90 1017.04 1017.10 1017.06 1016.86 1016.66 1016.46 1016.51 1016.44 1016.58
1011.26 1011.72 1012.04 1012.37 1012.91 1013.49 1013.89 1014.17 1014.47 1014.71 1014.90 1015.09 1015.24 1015.42 1015.67 1015.77 1015.94 1016.07 1016.20 1016.30 1016.42 1016.53 1016.57 1016.60 1016.47 1016.63 1016.62 1016.68 1016.68 1016.68 1016.61 1016.58 1016.66 1016.72 1016.93 1016.91 1016.98 1016.89 1016.66 1016.48 1016.40 1016.44 1016.47
1011.44 1011.72 1012.06 1012.44 1012.93 1013.39 1013.91 1014.33 1014.59 1014.79 1015.00 1015.16 1015.45 1015.69 1015.80 1015.75 1015.92 1015.89 1016.14 1016.25 1016.48 1016.62 1016.72 1016.82 1016.74 1016.80 1016.80 1016.82 1016.82 1016.79 1016.72 1016.61 1016.69 1016.74 1016.64 1016.80 1016.94 1016.93 1016.65 1016.32 1016.14 1016.14 1016.20
1011.76 1012.14 1012.37 1012.69 1012.99 1013.46 1013.90 1014.40 1014.71 1014.90 1015.15 1015.38 1015.51 1015.76 1015.78 1015.84 1015.92 1015.88 1015.96 1016.20 1016.58 1016.75 1016.97 1017.02 1016.95 1016.97 1016.98 1016.95 1016.92 1016.82 1016.79 1016.74 1016.70 1016.62 1016.65 1016.58 1016.76 1016.68 1016.60 1016.26 1015.93 1015.83 1015.94
1011.69 1012.23 1012.59 1012.87 1013.15 1013.43 1013.88 1014.35 1014.76 1015.05 1015.20 1015.42 1015.64 1015.84 1015.94 1015.94 1015.95 1015.94 1015.99 1016.26 1016.65 1016.88 1016.99 1017.02 1017.02 1016.97 1016.94 1016.96 1016.88 1016.71 1016.63 1016.49 1016.65 1016.42 1016.44 1016.54 1016.55 1016.66 1016.53 1016.23 1015.95 1015.75 1015.67
1012.03 1012.27 1012.67 1013.02 1013.26 1013.64 1013.87 1014.34 1014.72 1015.05 1015.31 1015.47 1015.70 1015.84 1015.97 1016.03 1016.02 1015.91 1016.18 1016.48 1016.75 1016.93 1017.00 1016.93 1016.96 1016.86 1016.86 1016.83 1016.81 1016.68 1016.68 1016.85 1016.49 1016.46 1016.36 1016.30 1016.37 1016.46 1016.32 1016.10 1015.92 1015.72 1015.49
1011.97 1012.32 1012.65 1013.14 1013.37 1013.72 1014.07 1014.29 1014.67 1015.05 1015.29 1015.58 1015.72 1015.90 1016.00 1016.15 1016.11 1015.83 1016.18 1016.58 1016.77 1016.98 1016.95 1016.92 1016.91 1016.83 1016.77 1016.77 1016.70 1016.70 1016.59 1016.75 1016.49 1016.38 1016.20 1016.12 1016.20 1016.15 1015.96 1015.78 1015.60 1015.42 1015.29
1012.00 1012.28 1012.63 1013.03 1013.43 1013.77 1014.12 1014.33 1014.63 1014.96 1015.31 1015.60 1015.83 1016.03 1016.14 1016.32 1016.38 1016.34 1016.39 1016.67 1016.84 1016.95 1017.04 1017.01 1017.00 1016.86 1016.65 1016.73 1016.75 1016.66 1016.69 1016.50 1016.43 1016.31 1016.12 1015.82 1015.97 1015.85 1015.53 1015.34 1015.16 1014.99 1014.83
1012.24 1012.47 1012.65 1013.03 1013.36 1013.70 1014.10 1014.43 1014.65 1014.97 1015.32 1015.62 1015.90 1016.15 1016.35 1016.53 1016.57 1016.65 1016.77 1016.86 1016.97 1016.98 1017.09 1016.97 1016.88 1016.80 1016.77 1016.89 1016.95 1016.80 1016.90 1016.61 1016.36 1016.44 1016.11 1015.86 1015.82 1015.53 1015.17 1014.94 1014.84 1014.67 1014.53
1012.44 1012.60 1012.84 1012.96 1013.30 1013.67 1014.04 1014.41 1014.72 1014.97 1015.31 1015.67 1015.96 1016.22 1016.48 1016.71 1016.80 1016.75 1016.97 1017.02 1017.04 1017.02 1017.09 1017.05 1016.97 1017.03 1017.05 1017.13 1017.02 1017.06 1016.89 1016.76 1016.52 1016.43 1016.19 1016.01 1015.62 1015.31 1015.05 1014.87 1014.70 1014.52 1014.31
1012.17 1012.54 1012.84 1012.91 1013.16 1013.58 1013.93 1014.34 1014.61 1014.88 1015.16 1015.61 1016.04 1016.33 1016.55 1016.73 1016.94 1016.90 1017.05 1017.04 1017.10 1017.12 1017.22 1017.30 1017.27 1017.38 1017.19 1017.20 1017.07 1017.09 1017.01 1016.95 1016.66 1016.57 1016.32 1016.05 1015.57 1015.21 1014.98 1014.84 1014.66 1014.48 1014.24
1011.59 1012.14 1012.47 1012.75 1013.06 1013.48 1013.65 1014.13 1014.61 1014.87 1015.14 1015.57 1015.98 1016.37 1016.67 1016.78 1016.91 1017.02 1017.02 1017.01 1017.06 1017.16 1017.47 1017.52 1017.45 1017.66 1017.59 1017.38 1017.46 1017.34 1017.16 1017.06 1016.78 1016.68 1016.57 1016.14 1015.61 1015.23 1014.97 1014.74 1014.62 1014.64 1014.45
1011.25 1011.55 1012.02 1012.47 1012.89 1013.24 1013.48 1013.82 1014.25 1014.72 1015.07 1015.47 1015.82 1016.26 1016.59 1016.75 1016.94 1016.89 1017.05 1017.21 1017.25 1017.64 1017.74 1017.74 1017.79 1018.07 1018.02 1017.70 1017.89 1017.42 1017.34 1017.27 1016.97 1016.87 1016.76 1016.36 1015.90 1015.44 1015.23 1015.18 1015.11 1015.01 1014.68
1010.97 1011.12 1011.56 1012.04 1012.44 1012.80 1013.23 1013.59 1014.00 1014.42 1014.84 1015.29 1015.66 1016.17 1016.37 1016.65 1016.83 1017.09 1017.54 1017.69 1017.96 1017.82 1017.88 1018.12 1018.07 1018.23 1018.07 1017.97 1017.94 1017.56 1017.41 1017.30 1017.10 1017.00 1016.90 1016.77 1016.38 1016.11 1015.96 1015.80 1015.69 1015.36 1015.22
1010.32 1010.51 1011.02 1011.54 1011.97 1012.20 1012.75 1013.32 1013.65 1014.17 1014.61 1015.09 1015.47 1015.86 1016.22 1016.58 1017.08 1017.42 1017.79 1017.97 1018.11 1018.18 1018.36 1018.45 1018.45 1018.47 1018.39 1018.18 1018.08 1017.73 1017.49 1017.41 1017.29 1017.19 1017.09 1017.08 1017.03 1016.79 1016.55 1016.40 1016.22 1015.99 1015.81
1009.70 1010.00 1010.41 1010.72 1011.25 1011.72 1012.23 1012.92 1013.42 1013.98 1014.32 1014.94 1015.38 1015.77 1016.15 1016.66 1017.08 1017.61 1017.83 1018.19 1018.43 1018.57 1018.57 1018.67 1018.73 1018.59 1018.59 1018.30 1018.08 1017.69 1017.52 1017.48 1017.51 1017.44 1017.36 1017.38 1017.38 1017.32 1017.04 1016.90 1016.77 1016.53 1016.26
1009.26 1009.52 1009.86 1010.11 1010.51 1011.18 1011.88 1012.62 1013.22 1013.77 1014.36 1014.77 1015.33 1015.71 1016.23 1016.70 1017.16 1017.76 1018.17 1018.42 1018.76 1018.75 1018.80 1018.97 1018.84 1018.83 1018.76 1018.32 1017.98 1017.64 1017.50 1017.55 1017.58 1017.64 1017.56 1017.60 1017.65 1017.60 1017.54 1017.42 1017.27 1017.05 1016.78
1008.81 1009.10 1009.45 1009.84 1010.11 1010.78 1011.71 1012.51 1013.34 1013.82 1014.40 1014.90 1015.32 1015.81 1016.37 1016.79 1017.33 1017.78 1018.42 1018.78 1018.92 1018.82 1019.00 1019.11 1019.17 1019.20 1019.02 1018.47 1017.94 1017.62 1017.41 1017.43 1017.60 1017.75 1017.66 1017.71 1017.86 1017.87 1017.82 1017.76 1017.58 1017.29 1017.03
1008.60 1008.96 1009.16 1009.69 1010.10 1010.64 1011.51 1012.73 1013.70 1014.38 1014.89 1015.35 1015.58 1016.08 1016.57 1017.13 1017.48 1018.01 1018.71 1018.81 1019.03 1019.03 1019.23 1019.38 1019.51 1019.68 1019.50 1018.89 1017.99 1017.68 1017.44 1017.58 1017.75 1017.78 1017.74 1017.76 1017.88 1017.96 1017.94 1017.92 1017.60 1017.26 1017.02
1008.55 1008.69 1008.96 1009.47 1010.04 1010.37 1011.23 1012.30 1013.74 1014.62 1015.40 1015.89 1016.08 1016.47 1016.94 1017.46 1017.63 1018.19 1018.69 1019.06 1019.33 1019.38 1019.76 1019.82 1019.91 1019.84 1019.52 1019.04 1018.32 1017.69 1017.51 1017.68 1017.64 1017.74 1017.62 1017.74 1017.95 1018.02 1017.98 1017.73 1017.48 1017.20 1016.78
1008.11 1008.47 1009.01 1009.52 1009.86 1010.22 1010.68 1011.64 1012.69 1014.29 1015.60 1016.18 1016.65 1017.06 1017.32 1017.60 1017.91 1018.27 1018.73 1019.30 1019.61 1019.78 1020.15 1020.14 1020.03 1019.95 1019.91 1019.86 1019.25 1018.97 1018.25 1017.71 1017.56 1017.53 1017.77 1017.83 1017.87 1017.85 1017.68 1017.55 1017.46 1017.17 1016.77
1007.76 1008.17 1008.67 1009.09 1009.78 1010.26 1010.85 1011.71 1013.15 1014.60 1015.77 1016.61 1017.33 1017.63 1017.85 1017.85 1018.22 1018.42 1019.00 1019.41 1019.92 1020.15 1020.32 1020.39 1020.38 1020.29 1020.08 1020.15 1019.93 1019.68 1019.30 1019.13 1019.00 1017.88 1017.58 1017.84 1017.83 1018.00 1017.86 1017.75 1017.48 1017.11 1016.74
1007.16 1008.04 1008.64 1009.11 1009.48 1010.28 1010.80 1011.41 1012.16 1013.59 1014.83 1015.95 1016.81 1017.58 1017.99 1018.30 1018.54 1018.76 1019.26 1019.73 1020.11 1020.36 1020.45 1020.61 1020.68 1020.57 1020.39 1020.35 1020.32 1020.47 1020.48 1020.45 1019.89 1018.73 1018.20 1017.88 1018.26 1018.17 1017.96 1017.62 1017.30 1016.94 1016.54
1006.99 1007.72 1008.40 1009.04 1009.46 1010.09 1010.51 1010.98 1012.08 1013.24 1014.45 1015.71 1016.93 1017.50 1018.19 1018.60 1018.81 1019.16 1019.56 1020.03 1020.27 1020.49 1020.70 1020.66 1020.83 1020.80 1020.75 1020.72 1020.82 1020.88 1020.76 1020.64 1020.66 1020.24 1018.47 1017.81 1017.95 1017.72 1017.61 1017.45 1017.22 1016.73 1016.35
1006.85 1007.62 1008.28 1008.89 1009.35 1009.95 1010.57 1011.20 1011.75 1012.86 1014.50 1015.80 1016.82 1017.57 1018.26 1018.61 1019.06 1019.51 1019.96 1020.27 1020.47 1020.64 1020.64 1020.80 1021.04 1020.92 1020.87 1021.01 1021.18 1021.17 1021.02 1020.90 1020.53 1020.42 1019.59 1018.55 1018.07 1017.39 1017.43 1017.09 1016.78 1016.45 1016.21
Thickness
5757 5758 5755 5751 5748 5746 5743 5742 5739 5737 5736 5735 5733 5731 5730 5729 5727 5725 5723 5722 5722 5723 5723 5724 5724 5723 5724 5725 5724 5723 5722 5721 5720 5719 5717 5718 5719 5721 5723 5722 5720 5720 5718
5760 5756 5753 5749 5745 5743 5740 5737 5735 5733 5732 5730 5730 5728 5726 5724 5722 5721 5720 5719 5718 5718 5719 5720 5721 5719 5719 5718 5719 5719 5719 5718 5717 5714 5713 5713 5713 5715 5716 5717 5716 5716 5715
5758 5753 5750 5747 5743 5739 5736 5734 5731 5729 5728 5726 5724 5723 5721 5720 5718 5717 5716 5715 5715 5714 5714 5714 5716 5714 5713 5713 5712 5712 5713 5714 5712 5712 5711 5709 5708 5709 5711 5712 5712 5712 5711
5752 5750 5746 5743 5740 5737 5733 5729 5727 5725 5723 5722 5719 5718 5717 5717 5715 5715 5713 5712 5709 5709 5709 5709 5710 5710 5709 5709 5709 5709 5709 5710 5709 5709 5710 5707 5705 5705 5706 5708 5709 5708 5708
5745 5741 5739 5737 5736 5732 5729 5725 5722 5721 5719 5717 5716 5713 5713 5713 5712 5713 5712 5710 5706 5706 5704 5703 5705 5705 5705 5704 5704 5705 5704 5704 5705 5706 5704 5705 5702 5701 5701 5703 5705 5705 5703
5742 5737 5735 5731 5730 5729 5726 5722 5718 5716 5716 5715 5712 5710 5709 5709 5709 5709 5709 5707 5703 5702 5701 5701 5701 5701 5701 5700 5701 5702 5702 5703 5701 5703 5702 5700 5699 5697 5697 5698 5699 5701 5700
5736 5733 5729 5727 5725 5723 5723 5719 5716 5713 5712 5712 5710 5708 5707 5706 5706 5707 5705 5702 5699 5698 5697 5698 5698 5698 5698 5697 5696 5697 5696 5694 5697 5697 5697 5697 5696 5694 5692 5693 5694 5695 5696
5733 5730 5726 5721 5720 5718 5716 5715 5712 5710 5709 5707 5707 5705 5704 5703 5703 5705 5702 5698 5696 5694 5695 5695 5695 5695 5695 5694 5693 5693 5693 5691 5692 5692 5693 5693 5691 5689 5689 5689 5690 5691 5691
5728 5726 5723 5719 5716 5714 5712 5711 5709 5707 5705 5703 5702 5701 5700 5699 5699 5699 5698 5694 5693 5692 5691 5691 5690 5690 5692 5689 5688 5688 5687 5690 5687 5686 5688 5689 5687 5686 5686 5686 5686 5687 5687
5722 5721 5719 5717 5713 5711 5709 5707 5705 5703 5700 5699 5698 5696 5695 5694 5694 5693 5691 5690 5689 5688 5686 5687 5687 5686 5686 5683 5682 5682 5680 5683 5682 5680 5682 5683 5682 5681 5682 5682 5681 5682 5683
5715 5714 5713 5713 5711 5709 5706 5702 5701 5699 5697 5694 5693 5693 5691 5688 5688 5688 5686 5685 5685 5684 5682 5681 5681 5680 5678 5675 5675 5674 5674 5674 5675 5674 5674 5675 5676 5675 5675 5675 5675 5676 5676
5710 5708 5708 5709 5707 5705 5703 5700 5697 5695 5693 5691 5688 5686 5685 5684 5682 5682 5681 5681 5680 5679 5677 5674 5674 5671 5669 5667 5667 5666 5666 5666 5667 5666 5667 5668 5670 5669 5669 5668 5668 5668 5668
5710 5708 5707 5706 5702 5700 5699 5697 5694 5691 5689 5686 5683 5680 5678 5678 5678 5676 5676 5676 5675 5675 5670 5668 5668 5663 5662 5662 5659 5658 5660 5659 5660 5659 5659 5660 5661 5661 5662 5662 5661 5660 5660
5707 5708 5706 5704 5701 5698 5695 5694 5692 5688 5684 5681 5678 5675 5673 5672 5671 5672 5670 5669 5669 5666 5663 5662 5660 5655 5653 5656 5651 5655 5654 5652 5652 5650 5649 5650 5651 5652 5652 5650 5649 5647 5649
5704 5705 5703 5701 5698 5696 5693 5690 5688 5685 5681 5677 5674 5670 5669 5667 5666 5664 5662 5661 5658 5658 5657 5653 5652 5648 5648 5647 5646 5648 5647 5645 5644 5642 5641 5640 5639 5639 5637 5637 5636 5637 5636
5704 5704 5702 5699 5697 5695 5692 5687 5685 5681 5677 5673 5669 5666 5664 5662 5659 5657 5655 5653 5651 5650 5648 5645 5643 5640 5639 5639 5638 5641 5640 5637 5635 5633 5631 5628 5626 5625 5625 5624 5623 5624 5623
5704 5702 5700 5699 5697 5695 5691 5685 5680 5676 5675 5669 5665 5663 5660 5657 5653 5650 5648 5646 5644 5641 5639 5636 5633 5634 5630 5631 5631 5634 5632 5629 5625 5623 5620 5617 5614 5613 5613 5612 5611 5611 5611
5701 5699 5698 5699 5698 5694 5688 5682 5675 5672 5669 5666 5661 5658 5654 5650 5648 5643 5641 5638 5635 5633 5631 5627 5627 5625 5623 5625 5625 5627 5625 5620 5616 5613 5610 5607 5605 5603 5602 5601 5599 5598 5597
5699 5697 5695 5695 5695 5690 5684 5676 5668 5665 5663 5659 5656 5653 5648 5644 5640 5637 5631 5629 5627 5626 5622 5620 5618 5616 5615 5617 5619 5619 5617 5612 5608 5604 5602 5598 5595 5592 5589 5587 5587 5586 5585
5691 5692 5691 5689 5688 5684 5677 5666 5658 5654 5652 5649 5648 5644 5641 5637 5633 5629 5623 5622 5618 5617 5613 5611 5609 5605 5604 5605 5610 5610 5608 5603 5598 5595 5593 5589 5585 5581 5578 5575 5573 5574 5573
5682 5685 5685 5683 5680 5679 5671 5663 5652 5646 5642 5639 5637 5635 5631 5628 5626 5621 5617 5613 5609 5607 5602 5600 5598 5597 5597 5597 5600 5602 5600 5593 5591 5586 5583 5579 5573 5569 5565 5563 5561 5559 5559
5677 5678 5677 5675 5674 5673 5669 5663 5656 5644 5634 5631 5626 5624 5623 5621 5618 5615 5610 5604 5600 5597 5593 5590 5589 5587 5585 5581 5584 5581 5586 5587 5582 5579 5572 5567 5562 5558 5555 5551 5546 5544 5544
5672 5672 5672 5670 5667 5665 5660 5656 5646 5635 5626 5620 5614 5613 5612 5611 5609 5607 5601 5596 5591 5587 5584 5581 5578 5575 5574 5570 5568 5569 5572 5569 5562 5569 5566 5556 5550 5543 5538 5534 5530 5527 5526
5669 5665 5663 5662 5662 5656 5654 5651 5649 5639 5630 5620 5612 5606 5603 5601 5599 5596 5591 5586 5581 5577 5574 5570 5566 5563 5561 5557 5554 5549 5546 5542 5545 5554 5555 5551 5540 5534 5527 5523 5519 5515 5512
5661 5658 5655 5654 5654 5650 5650 5648 5641 5634 5624 5613 5604 5600 5594 5591 5589 5586 5581 5575 5571 5567 5563 5560 5555 5552 5548 5544 5540 5535 5530 5526 5520 5520 5534 5538 5529 5523 5516 5510 5503 5499 5496
5654 5650 5648 5647 5648 5645 5642 5639 5636 5627 5614 5604 5597 5593 5588 5585 5580 5575 5569 5564 5560 5556 5554 5549 5542 5539 5536 5530 5524 5520 5516 5512 5510 5504 5506 5511 5510 5511 5503 5497 5490 5485 5480